Location: D�rjana
(46.2333°N, 22.6833°E)
Time: 16:55:59
(UTC+00:00)

Daily predictions for brighter satellites

Satellite Brightness Start Highest point End
(mag) Time Altitude Azimuth Time Altitude Azimuth Time Altitude Azimuth
Cosmos 2173 Rocket 4.4 18:50:07 10° N 18:56:19 50° ENE 19:02:28 10° SSE
Resurs 1-3 4.3 18:58:30 10° S 19:02:48 55° W 19:07:08 10° NNW
SPOT 3 Rocket 3.6 18:59:13 10° SSE 19:04:22 77° ENE 19:09:35 10° NNW
Cosmos 1025 Rocket 3.8 19:01:05 10° SSE 19:05:04 35° E 19:09:02 10° NNE
SL-8 R/B 4.0 19:03:57 10° WNW 19:08:41 57° SSW 19:13:21 10° SE
Cosmos 1953 2.4 19:06:49 10° N 19:10:53 68° E 19:14:54 10° SSE
Meteor 1-16 Rocket 4.1 19:06:41 10° N 19:12:08 76° ENE 19:17:27 10° SSE
Cosmos 1300 4.3 19:09:16 10° NNE 19:12:13 21° ENE 19:15:10 10° ESE
DNEPR-1 R/B 4.0 19:11:15 10° NNW 19:15:24 53° NE 19:19:45 10° SE
Cosmos 1110 Rocket 4.0 19:10:51 10° SSW 19:16:00 74° ESE 19:21:14 10° NNE
Cosmos 1727 Rocket 4.2 19:09:46 10° S 19:16:05 82° W 19:22:23 10° N
Cosmos 1340 3.7 19:13:24 10° SSE 19:16:40 29° E 19:19:58 10° NNE
FALCON 9 DEB 4.3 19:14:49 10° W 19:18:09 46° NNW 19:21:28 10° NE
Cosmos 1844 Rocket 2.8 19:12:28 10° NNW 19:18:11 82° WSW 19:23:50 10° SSE
Cosmos 2322 4.0 19:13:12 10° S 19:18:31 45° ESE 19:23:53 10° NE
Cosmos 2278 Rocket 3.8 19:14:34 10° N 19:19:06 24° NE 19:23:38 10° E
ATLAS 3B R/B 2.7 19:14:42 10° SSW 19:21:01 54° ESE 19:27:32 10° NE
COSMOS 2428 3.4 19:16:22 10° SSE 19:21:25 33° ESE 19:26:30 10° NE
CARTOSAT-1 4.0 19:19:48 10° SE 19:23:56 47° ENE 19:28:05 10° N
Meteor 2-11 Rocket 4.5 19:19:16 10° N 19:25:23 71° E 19:31:26 10° SSE
OPS 8737 4.4 19:21:57 10° SSW 19:26:07 73° SE 19:29:18 10° NE
FALCON 9 DEB 2.8 19:23:23 10° SW 19:26:29 65° SE 19:29:36 10° ENE
ATLAS 2A CENTAUR R/B 4.4 19:19:05 10° SW 19:27:21 16° SSW 19:31:47 10° SSE
Aureole 1 Rocket 4.4 19:21:20 10° NNW 19:27:33 81° WSW 19:35:21 10° SSE
MetOp-B 4.3 19:25:51 10° S 19:31:12 78° WSW 19:36:35 10° NNW
Cosmos 1975 Rocket 3.6 19:29:52 10° SSW 19:34:12 62° WNW 19:38:35 10° N
USA 245 4.2 19:29:47 10° SSE 19:34:55 86° E 19:41:00 10° NNW
Cosmos 1459 Rocket 4.0 19:29:41 10° N 19:35:46 89° W 19:41:52 10° S
Cosmos 1626 2.0 19:32:50 10° S 19:36:31 77° E 19:40:13 10° NNE
Cosmos 1802 Rocket 4.1 19:32:05 10° N 19:38:25 80° E 19:44:47 10° SSE
FALCON 9 DEB 3.1 19:37:26 10° WSW 19:40:31 72° NNW 19:43:37 10° ENE
Cosmos 1908 3.8 19:39:26 10° NNW 19:43:14 55° W 19:46:58 10° S
Cosmos 405 3.1 19:39:54 10° N 19:43:19 57° ENE 19:45:51 16° SSE
CZ-2C R/B 3.9 19:39:04 10° NNE 19:43:52 81° WNW 19:48:38 10° SSW
ERS-1 Rocket 3.1 19:44:00 14° SSE 19:48:17 63° ENE 19:53:17 10° N
Terra 2.4 19:45:40 15° SE 19:49:21 44° ENE 19:53:54 10° N
FALCON 9 DEB 3.0 19:46:43 10° WSW 19:49:50 76° NNW 19:52:57 10° ENE
Geosat 4.2 19:46:57 15° SE 19:51:07 63° ENE 19:56:06 10° NNW
Resurs 01 Rocket 3.2 19:47:28 10° SSW 19:51:21 30° W 19:55:16 10° NNW
FALCON 9 DEB 3.3 19:48:21 10° WSW 19:51:26 63° NNW 19:54:32 10° NE
JB-3 4.4 19:50:21 10° NNE 19:54:22 88° WNW 19:58:26 10° SSW
Spot 2 Rocket 3.6 19:51:08 12° S 19:55:47 79° WSW 20:00:55 10° NNW
Cosmos 2333 4.4 19:52:01 10° SSW 19:57:46 79° WNW 20:03:31 10° NNE
SPOT 5 2.9 19:57:26 16° SSE 20:01:33 81° ENE 20:06:23 10° NNW
Cosmos 1346 Rocket 3.7 20:03:28 20° SE 20:05:31 33° E 20:09:10 10° NNE
Cosmos 1864 Rocket 4.5 20:00:13 10° N 20:06:25 86° W 20:11:45 14° S
Cosmos 2219 Rocket 2.2 20:01:39 10° SSW 20:07:20 89° ESE 20:13:03 10° NNE
Cosmos 2333 Rocket 2.5 20:07:07 10° SSW 20:12:50 74° WNW 20:18:35 10° NNE
SL-4 R/B 2.1 20:11:26 10° SW 20:15:30 48° SE 20:19:17 10° ENE
Cosmos 2123 Rocket 4.2 20:11:08 10° SSW 20:17:26 76° W 20:23:48 10° N
ATLAS CENTAUR R/B 2.6 20:13:32 10° NW 20:17:35 36° WSW 20:20:30 17° S
Meteor 2-5 Rocket 3.7 20:12:44 10° S 20:18:11 88° E 20:23:51 10° NNE
Cosmos 1606 Rocket 4.2 20:15:35 10° N 20:19:53 44° ENE 20:22:14 23° SE
Cosmos 2233 Rocket 4.0 20:14:37 10° N 20:20:48 79° E 20:25:19 20° SSE
Cosmos 1302 Rocket 4.3 20:15:51 10° SSW 20:21:05 68° WNW 20:26:20 10° NNE
Cosmos 2061 Rocket 4.4 20:15:26 10° NNW 20:21:48 65° W 20:27:26 13° S
Uosat 12 SS-18 rocket 4.2 20:21:00 10° SW 20:25:22 85° NW 20:30:28 10° NE
Lacrosse 5 rocket 3.3 20:22:39 10° W 20:25:50 27° NNW 20:28:58 10° NE
ARIANE 5 R/B 3.6 20:24:09 14° SSW 20:27:42 41° W 20:31:58 10° NNW
SL-16 R/B 3.9 20:27:52 14° ESE 20:29:05 15° E 20:32:10 10° ENE
Cosmos 2237 Rocket 2.6 20:26:40 21° SSE 20:29:59 43° ESE 20:35:16 10° NE
Cosmos 2360 Rocket 4.3 20:28:01 10° WSW 20:32:51 28° NW 20:37:41 10° N
Cosmos 1455 3.0 20:33:19 10° N 20:36:53 37° ENE 20:38:15 27° ESE
Centaur D AC-29 4.0 20:23:24 10° W 20:40:34 21° SW 20:44:36 16° S
Cosmos 1607 4.1 20:35:35 10° NW 20:42:02 75° NE 20:46:11 23° SE
Meteor 1-24 Rocket 3.9 20:41:26 13° SSW 20:46:12 68° WNW 20:51:44 10° N
Cosmos 2228 3.1 20:43:04 10° NNW 20:47:30 79° W 20:49:42 29° S
Cosmos 1300 4.2 20:44:32 10° NNW 20:47:54 29° W 20:50:18 16° SW
Cosmos 389 Rocket 2.5 20:46:29 10° NNW 20:49:55 70° W 20:51:04 38° S
Cosmos 968 Rocket 4.2 20:45:42 10° NNW 20:50:35 45° WSW 20:53:33 22° SSW
Cosmos 1867 4.0 20:49:59 10° NW 20:55:18 51° WSW 20:58:01 27° S
Cosmos 1992 Rocket 4.3 20:59:05 13° SSW 21:03:42 68° WNW 21:08:57 10° NNE
Cosmos 2278 Rocket 2.3 20:58:04 10° NNW 21:03:44 69° WSW 21:06:37 30° S
H-2A R/B 4.1 20:59:51 10° N 21:03:50 51° WNW 21:06:36 18° SW
COSMOS 2428 3.8 21:00:06 10° SW 21:05:33 44° NW 21:11:03 10° NNE
ATLAS 3B R/B 4.0 21:05:45 10° WSW 21:11:55 41° NW 21:18:21 10° NNE
Cosmos 1464 Rocket 4.1 21:05:39 10° N 21:12:03 73° E 21:15:27 29° SSE
Meteor 2-10 Rocket 4.3 21:11:08 10° NNW 21:15:50 41° W 21:18:34 22° SSW
NOSS 3-1 (C) 4.0 21:14:53 29° SE 21:15:56 31° ESE 21:21:06 10° NE
ATLAS CENTAUR R/B 3.2 21:13:48 29° S 21:16:21 55° ESE 21:27:21 10° NE
Cosmos 1354 Rocket 4.1 21:12:32 10° NNW 21:17:52 72° WSW 21:20:13 34° S
Meteor 1-4 Rocket 3.3 21:20:39 10° N 21:23:55 37° ENE 21:24:25 35° E
Cosmos 1943 Rocket 3.1 21:19:39 10° NNW 21:24:49 39° NE 21:28:16 19° ESE
Terra 3.6 21:24:33 14° SW 21:27:18 23° W 21:31:04 10° NW
NOSS 3-1 (A) 4.5 21:27:44 21° ESE 21:28:16 22° ESE 21:32:38 10° ENE
Meteor 1-21 Rocket 4.2 21:25:46 32° S 21:28:30 80° E 21:34:17 10° NNE
USA 215 3.2 21:28:22 10° ENE 21:34:51 62° SE 21:39:57 17° SW
COBE Rocket 3.9 21:34:53 38° SSE 21:36:50 78° ENE 21:41:44 10° N
Cosmos 1812 Rocket 4.4 21:33:52 10° N 21:37:59 39° ENE 21:39:19 31° ESE
Okean 1-7 Rocket 3.5 21:38:09 41° SSW 21:39:40 83° W 21:44:07 10° N
Cosmos 1441 Rocket 3.2 21:40:07 49° SSW 21:41:02 75° WNW 21:44:51 10° N
Cosmos 1980 4.3 21:36:06 12° SW 21:41:14 54° WNW 21:46:50 10° NNE
Cosmos 1184 Rocket 3.7 21:41:12 35° WSW 21:41:52 40° WNW 21:44:58 10° N
Cosmos 2058 Rocket 3.6 21:40:30 10° NNW 21:44:49 50° W 21:46:11 36° SW
Cosmos 2034 Rocket 3.9 21:42:36 10° N 21:48:49 86° W 21:51:39 35° S
SJ 16-02 1.6 21:49:15 10° NNW 21:53:36 61° ENE 21:54:55 41° SE
SL-4 R/B 2.8 21:51:11 10° W 21:55:07 49° NNW 21:58:46 10° ENE
Cosmos 1703 4.0 21:58:22 35° SW 21:59:33 46° WNW 22:03:23 10° N
Lacrosse 5 rocket 4.3 22:03:44 10° NW 22:05:53 15° N 22:08:02 10° NE
NOSS 2-3 (D) 3.6 22:07:09 49° SE 22:07:33 51° ESE 22:12:04 10° NE
Lacrosse 4 Rocket 4.3 22:06:14 10° NNE 22:07:34 11° NE 22:08:53 10° NE
USA 267 3.4 22:02:11 10° ESE 22:08:41 73° NNE 22:15:13 10° NW
GP-B 3.3 22:04:43 10° N 22:09:08 58° E 22:10:11 45° SE
Cosmos 724 4.4 22:04:14 10° NW 22:10:21 65° WSW 22:12:39 38° S
Cosmos 1455 4.3 22:09:43 10° NW 22:12:09 16° W 22:13:08 15° WSW
SL-16 R/B 2.2 22:09:42 33° SSW 22:12:23 86° WNW 22:18:06 10° NNE
Cosmos 2237 Rocket 3.6 22:09:03 10° WSW 22:14:08 34° NW 22:19:16 10° NNE
GEOS 3 Rocket 3.8 22:13:21 40° S 22:15:08 59° SW 22:20:26 10° NW
Cosmos 1763 Rocket 4.3 22:15:47 31° SE 22:16:56 35° ESE 22:21:34 10° NE
USA 32 4.0 22:13:30 10° N 22:18:46 79° W 22:20:35 42° S
ALOS 2 3.0 22:18:46 42° SW 22:19:43 51° W 22:24:01 10° NNW
Tsikada Rocket 4.0 22:16:57 34° SSW 22:19:50 78° W 22:26:01 10° N
BREEZE-M DEB (TANK) 3.7 22:17:52 10° WNW 22:21:39 65° N 22:33:38 10° E
Cosmos 405 Rocket 4.3 22:21:48 22° E 22:22:03 22° E 22:24:56 10° NE
Cosmos 2369 Rocket 2.7 22:17:12 10° NNW 22:22:51 57° ENE 22:26:09 25° SE
NOSS 2-3 (C) 3.4 22:23:21 54° SSW 22:24:15 77° SE 22:29:03 10° NE
Aureole 3 3.5 22:22:40 10° N 22:26:43 88° W 22:28:01 48° S
Cosmos 1626 Rocket 4.5 22:28:46 30° WSW 22:30:18 41° WNW 22:34:31 10° N
Cosmos 1953 Rocket 4.3 22:30:53 35° SE 22:31:50 41° E 22:35:59 10° NNE
Transit 2A Rocket 4.4 22:34:19 55° SSW 22:35:13 78° ESE 22:39:41 10° NE
Thor Agena Rocket 3.5 22:30:53 10° NNE 22:36:09 80° ESE 22:37:56 42° S
MTI 4.3 22:34:06 10° N 22:36:58 45° WNW 22:36:58 45° WNW
Cosmos 1602 Rocket 4.3 22:37:29 34° SW 22:38:54 46° WNW 22:43:14 10° N
SAR-Lupe-2 4.1 22:40:26 10° N 22:43:55 48° WNW 22:44:28 43° WSW
Cosmos-2242 3.1 22:40:35 10° NNW 22:44:58 70° W 22:45:55 52° SSW
Cosmos 1758 Rocket 3.8 22:45:45 45° SW 22:46:55 63° W 22:51:18 10° N
Resurs 1-4 Rocket 4.2 22:47:24 10° NE 22:50:46 17° E 22:53:26 12° ESE
Cosmos 540 Rocket 4.2 22:49:47 32° SE 22:51:13 39° ESE 22:55:57 10° NE
Cosmos 2297 4.4 22:46:10 10° NW 22:51:21 39° WSW 22:52:49 33° SW
Cosmos 2058 3.9 22:53:37 31° ESE 22:54:31 35° E 22:58:16 10° NNE
USA 229 DEB 3.6 22:54:53 28° SW 22:58:33 85° NW 23:05:28 10° NE
USA 229 3.6 22:55:01 28° SW 22:58:39 86° NW 23:05:34 10° NE
BREEZE-M DEB (TANK) 2.6 22:53:57 10° W 22:58:51 55° NNW 23:01:13 10° ENE
Cosmos 990 Rocket 3.9 22:56:09 10° NNW 23:01:20 74° WSW 23:03:05 41° S
Cosmos 2279 Rocket 3.9 22:55:12 10° N 23:01:28 82° W 23:04:17 35° S
USA 307 3.8 23:04:12 32° SE 23:04:12 32° SE 23:07:46 10° ENE
Cosmos 1634 Rocket 4.5 23:00:06 10° NNW 23:06:09 49° W 23:08:51 31° SW
NOSS 3-1 (C) 4.0 23:02:14 17° WSW 23:06:22 52° NW 23:12:39 10° NE
Cosmos 841 Rocket 4.0 23:05:08 34° SSE 23:06:48 45° ESE 23:11:42 10° NNE
Cosmos 1943 Rocket 2.9 23:03:33 10° NW 23:08:29 35° WSW 23:09:46 31° SW
CZ-4 R/B 4.5 23:04:45 10° NNE 23:09:13 43° E 23:10:47 32° SE
CREW DRAGON DEMO-1 DEB 4.1 23:09:52 32° N 23:09:52 32° N 23:11:44 10° NE
In-Cosmos 22 Rocket 4.2 23:08:19 37° SSW 23:10:35 72° WNW 23:16:03 10° N
Exosat Rocket 3.8 23:09:10 34° SSW 23:12:06 86° ESE 23:17:21 10° NNE
Meteor 2-2 Rocket 4.4 23:07:18 10° N 23:13:22 76° ENE 23:16:34 29° SSE
Cosmos 2221 2.9 23:10:21 10° N 23:14:35 55° ENE 23:16:10 34° SE
Cosmos 1892 3.3 23:14:27 39° WSW 23:15:12 45° WNW 23:18:57 10° N
Meteor 2-13 Rocket 4.4 23:13:18 35° SSW 23:16:08 81° W 23:22:20 10° N
CZ-2D R/B 3.6 23:11:51 10° NE 23:16:10 26° E 23:18:49 18° SE
PSLV R/B 4.0 23:12:59 10° N 23:17:16 55° WNW 23:18:43 37° SW
DELTA 2 R/B (1) 3.9 23:17:19 38° S 23:17:49 39° S 23:22:57 10° ESE
USA 215 3.9 23:11:29 10° NE 23:17:49 54° NNW 23:24:08 10° W
Cosmos 1937 Rocket 3.5 23:12:55 10° NNW 23:18:17 90° NNW 23:20:46 33° SSE
NOSS 3-1 (A) 3.5 23:15:08 26° SW 23:18:19 68° NW 23:24:42 10° NE
USA 308 3.3 23:19:40 42° SSE 23:19:55 43° SE 23:23:57 10° ENE
Cosmos 1356 4.1 23:20:26 40° W 23:20:45 41° WNW 23:24:00 10° N
Cosmos 1898 Rocket 3.5 23:15:51 10° NNW 23:21:02 63° WSW 23:22:50 39° S
Cosmos 1242 Rocket 3.3 23:19:42 10° N 23:23:12 46° ENE 23:24:20 34° SE
Cosmos 1943 3.1 23:21:51 36° SSW 23:24:18 89° ESE 23:30:00 10° NNE
EO 1 Del DPAF 3.3 23:20:43 10° N 23:24:25 64° WNW 23:25:08 51° SW
Cosmos 1437 Rocket 2.6 23:22:55 10° NNW 23:26:48 83° W 23:27:33 56° S
Cosmos 1408 3.4 23:27:00 34° W 23:27:38 37° WNW 23:31:07 10° N
Cosmos 1869 4.4 23:26:32 10° NNW 23:30:10 31° W 23:30:46 30° WSW
SJ 16-02 3.4 23:29:20 10° WNW 23:31:39 14° W 23:31:53 14° W
USA 290 3.2 23:34:08 33° ESE 23:34:19 34° ESE 23:37:17 10° NE
Cosmos 1603 3.8 23:32:22 32° SW 23:35:07 75° WNW 23:40:48 10° NNE
SL-4 R/B 3.4 23:31:38 10° WNW 23:35:11 35° N 23:38:31 10° ENE
USA 305 2.9 23:35:36 47° SSW 23:36:33 62° SE 23:40:46 10° ENE
Cosmos 1825 2.5 23:35:53 44° WSW 23:36:38 53° WNW 23:40:21 10° N
Cosmos 1437 3.7 23:34:15 10° N 23:36:51 33° ENE 23:37:18 31° E
Nadezhda 4 Rocket 3.9 23:34:06 32° S 23:37:12 89° E 23:43:21 10° N
CZ-3B R/B 4.3 23:28:22 10° WNW 23:38:12 37° N 23:41:33 10° ENE
Cosmos 1814 Rocket 4.2 23:37:51 33° S 23:40:02 60° ESE 23:45:07 10° NNE
MOZ.5/SAFIR/RUBIN 5/SL-8 3.8 23:40:24 31° SSE 23:42:43 84° ENE 23:47:32 10° NNW
Helios 1A 2.9 23:41:35 41° S 23:42:59 79° WSW 23:47:13 10° NNW
Cosmos 1656 Rocket 3.9 23:39:15 10° NW 23:44:47 55° WSW 23:47:14 32° S
Lacrosse 5 rocket 3.7 23:43:11 10° NNW 23:46:03 22° NNE 23:48:56 10° ENE
Lacrosse 4 Rocket 1.6 23:43:00 10° NNW 23:47:05 65° ENE 23:49:55 19° SE
Cosmos 372 Rocket 3.9 23:41:48 10° NNW 23:47:05 88° WSW 23:50:12 25° SSE
YAOGAN 11 4.2 23:45:53 39° SSW 23:47:25 64° WSW 23:51:55 10° NNW
USA 267 3.7 23:49:00 26° S 23:51:59 39° SW 23:58:04 10° WNW
Cosmos 1633 2.6 23:54:54 44° SSE 23:55:51 68° E 23:59:22 10° NNE
